Temp
19 15 15 15 15 17 18 18 17 17 19 20 20 19 18 17 14 12 12 11 11 12 11 11 12 12 12 11 12 12 12 12 12 13 14 14 14 13 13 13 12 11 11 11
17 14 17 18 17 17 17 16 16 17 19 20 18 17 17 15 14 13 12 10 11 11 10 11 11 11 11 11 12 12 12 11 12 12 12 12 12 11 10 9 9 8 8 7
15 17 18 18 17 17 17 17 17 18 19 18 18 16 18 15 14 13 12 11 10 11 10 10 10 11 11 11 12 12 11 11 11 11 11 11 10 9 9 8 7 6 6 6
15 18 18 17 17 17 17 19 19 18 17 16 17 14 16 15 12 11 10 10 10 10 10 10 10 10 10 11 11 11 10 10 10 10 9 8 7 6 7 6 6 6 6 6
16 18 18 18 18 19 18 19 19 19 16 16 17 14 14 13 12 10 9 10 10 10 10 10 10 10 10 10 10 10 10 9 9 8 7 7 7 6 6 6 6 6 6 6
16 18 18 17 19 19 19 19 15 14 14 14 16 15 13 15 14 11 10 10 10 10 10 10 10 10 10 10 10 10 9 9 8 7 7 6 6 6 5 5 5 4 4 4
16 17 18 19 18 19 17 15 13 13 13 13 16 14 14 12 12 12 10 9 10 10 10 10 10 10 10 10 10 10 10 8 7 7 6 6 5 5 5 4 3 2 2 2
15 15 17 18 18 16 16 14 12 14 12 13 14 13 14 11 11 13 11 10 10 10 10 10 10 9 9 9 10 9 8 7 7 6 6 6 5 5 5 4 3 3 2 1
14 16 17 16 16 16 16 15 15 13 11 10 12 13 13 11 10 10 10 10 10 9 9 10 9 9 9 9 9 8 7 7 7 6 6 5 5 4 4 3 2 2 1 -0
16 15 14 16 16 15 16 16 14 9 11 10 11 12 12 11 9 9 9 9 9 10 9 9 9 9 9 9 8 9 8 7 6 6 5 5 4 4 3 2 2 1 1 1
14 13 13 14 14 13 13 13 12 12 9 9 9 9 11 12 10 9 10 10 10 10 9 9 9 9 8 8 8 8 7 7 6 6 5 4 3 3 2 1 1 1 1 -0
11 11 11 12 12 13 13 14 11 8 10 8 5 10 13 10 10 11 10 10 10 10 10 10 9 9 8 8 8 8 7 7 6 5 4 3 3 2 2 1 -1 -0 1 -0
11 10 9 11 12 12 12 13 12 10 7 8 9 11 11 10 11 12 11 11 11 10 9 9 9 8 8 8 8 7 6 6 5 4 3 3 2 2 1 0 -1 -0 -0 -0
11 9 9 9 13 11 10 11 11 10 6 11 10 11 12 12 9 9 10 10 10 9 8 8 7 6 7 7 7 6 6 5 4 3 2 2 1 1 0 0 0 -0 0 0
9 8 8 8 10 10 10 10 9 9 10 9 11 11 12 12 10 11 10 9 9 8 7 7 6 7 7 7 6 5 5 4 3 2 2 1 1 0 0 0 0 -0 -1 -0
7 8 6 7 6 8 8 8 8 9 10 10 10 9 10 10 11 11 9 8 7 7 6 6 7 7 7 6 5 5 5 4 3 2 2 1 1 1 0 -0 -0 0 -1 -2
6 6 6 10 8 9 8 6 9 11 11 10 9 9 8 8 7 7 8 8 7 6 7 7 7 6 6 6 5 5 5 4 3 2 2 1 1 0 -0 -0 -0 -1 -1 -3
5 6 6 9 8 9 11 11 12 11 10 8 8 7 6 6 6 7 7 7 7 7 7 6 6 6 6 5 5 5 4 4 3 3 2 2 1 1 -0 -1 -1 -1 -2 -4
5 6 7 8 9 10 10 11 9 9 8 5 6 6 5 6 6 6 6 6 6 6 6 6 6 5 5 5 5 5 4 3 3 3 3 3 2 1 0 -1 -1 -1 -1 -2
4 5 8 6 8 8 9 8 8 9 5 5 5 5 5 4 1 2 6 6 5 5 5 4 4 5 5 5 5 4 4 3 3 3 3 3 2 1 1 -0 -1 -2 -2 -2
5 4 7 8 8 7 7 8 8 5 7 5 5 5 5 2 4 4 4 4 3 2 3 3 4 3 2 1 1 1 1 1 0 1 1 2 1 1 1 -1 -1 -2 -2 -3
6 6 5 5 6 8 7 7 6 5 6 7 6 5 5 4 3 2 2 2 1 1 1 1 1 0 -1 -1 -2 -2 -2 -1 -0 -1 -1 0 1 1 1 -1 -1 -2 -3 -3
7 6 5 5 5 5 5 4 5 5 5 5 4 3 3 2 -0 -1 -1 -2 -2 -3 -2 -2 -2 -2 -3 -3 -5 -5 -4 -3 -3 -2 -2 -2 -2 -2 -1 -1 -1 -2 -3 -3
5 5 5 4 4 4 3 3 4 4 3 2 2 1 0 -2 -3 -3 -3 -4 -5 -5 -5 -4 -4 -5 -5 -5 -5 -6 -6 -5 -4 -4 -4 -3 -2 -3 -4 -2 -2 -3 -3 -4
5 4 3 2 2 2 2 3 3 1 1 0 -1 -3 -4 -4 -4 -4 -5 -6 -6 -6 -6 -6 -7 -7 -7 -7 -7 -7 -7 -7 -7 -6 -5 -4 -4 -3 -3 -4 -4 -4 -4 -4
4 3 3 4 3 1 -1 -1 0 0 -1 -2 -2 -4 -4 -4 -5 -6 -6 -7 -8 -8 -8 -8 -8 -8 -8 -8 -9 -8 -8 -8 -8 -7 -7 -6 -5 -5 -5 -4 -5 -5 -5 -5
Height
1518 1523 1528 1520 1517 1517 1519 1520 1519 1510 1503 1502 1501 1500 1493 1496 1498 1501 1501 1502 1505 1507 1511 1514 1515 1515 1513 1511 1512 1512 1515 1517 1518 1517 1517 1517 1515 1514 1512 1511 1509 1508 1505 1503
1521 1523 1509 1513 1516 1516 1518 1523 1520 1506 1501 1500 1500 1500 1493 1495 1496 1494 1498 1504 1507 1509 1510 1511 1512 1512 1513 1511 1512 1512 1514 1516 1516 1514 1512 1511 1509 1508 1507 1505 1502 1500 1498 1497
1520 1507 1504 1509 1512 1517 1511 1518 1515 1509 1501 1498 1499 1505 1493 1494 1493 1496 1499 1501 1504 1504 1505 1508 1508 1509 1509 1510 1512 1512 1512 1513 1514 1513 1510 1508 1505 1505 1501 1497 1494 1492 1490 1487
1513 1503 1504 1505 1510 1510 1515 1500 1503 1504 1508 1517 1498 1524 1500 1494 1496 1496 1497 1498 1500 1503 1506 1506 1507 1507 1508 1508 1509 1510 1510 1511 1511 1511 1508 1504 1502 1499 1495 1491 1488 1486 1484 1480
1508 1502 1501 1504 1501 1499 1504 1496 1499 1502 1509 1510 1500 1521 1506 1499 1500 1497 1497 1498 1499 1502 1504 1505 1507 1508 1507 1507 1507 1508 1508 1508 1508 1507 1505 1503 1500 1495 1490 1488 1484 1481 1478 1474
1504 1499 1498 1497 1493 1494 1496 1498 1505 1509 1513 1527 1508 1514 1512 1498 1495 1496 1497 1496 1498 1500 1502 1504 1505 1505 1505 1506 1506 1505 1505 1506 1505 1503 1501 1500 1496 1491 1486 1482 1479 1476 1473 1469
1504 1497 1492 1490 1496 1494 1499 1509 1531 1532 1530 1529 1505 1514 1503 1496 1492 1491 1490 1494 1496 1497 1499 1500 1500 1501 1502 1502 1503 1503 1503 1502 1501 1500 1498 1496 1490 1486 1482 1479 1475 1472 1471 1469
1515 1513 1494 1490 1491 1498 1502 1508 1532 1533 1535 1526 1509 1516 1497 1493 1489 1483 1486 1492 1496 1495 1495 1495 1498 1499 1499 1499 1500 1500 1499 1499 1497 1495 1493 1490 1486 1483 1481 1478 1477 1475 1472 1470
1513 1507 1492 1493 1490 1495 1503 1510 1505 1520 1527 1537 1519 1503 1495 1493 1493 1491 1490 1493 1495 1495 1496 1496 1496 1497 1498 1496 1496 1496 1496 1496 1493 1492 1489 1487 1485 1483 1479 1477 1476 1475 1473 1470
1499 1511 1499 1495 1494 1497 1498 1501 1516 1530 1533 1534 1521 1510 1505 1497 1495 1493 1492 1491 1492 1493 1497 1500 1502 1500 1495 1494 1494 1492 1493 1492 1490 1488 1486 1485 1481 1478 1476 1473 1473 1472 1469 1466
1499 1504 1507 1499 1505 1510 1507 1511 1516 1518 1530 1536 1533 1519 1492 1488 1485 1488 1486 1487 1488 1489 1491 1491 1494 1496 1496 1490 1492 1491 1489 1488 1487 1484 1482 1480 1477 1474 1472 1470 1469 1467 1465 1462
1506 1512 1512 1507 1504 1504 1508 1507 1514 1533 1529 1530 1536 1505 1482 1482 1481 1483 1481 1482 1483 1483 1485 1488 1489 1490 1492 1490 1489 1487 1486 1485 1484 1481 1478 1476 1473 1471 1468 1466 1464 1462 1460 1458
1502 1518 1525 1514 1510 1505 1509 1507 1507 1514 1526 1523 1520 1495 1481 1481 1481 1480 1478 1478 1477 1478 1481 1485 1487 1486 1487 1487 1485 1484 1483 1482 1480 1478 1475 1473 1470 1466 1463 1461 1459 1457 1455 1452
1501 1512 1519 1523 1505 1507 1512 1507 1505 1508 1529 1506 1504 1482 1482 1476 1478 1477 1474 1475 1475 1478 1481 1483 1483 1484 1481 1482 1481 1481 1480 1479 1476 1474 1471 1467 1464 1460 1457 1455 1453 1450 1449 1446
1504 1514 1517 1513 1505 1506 1506 1506 1507 1509 1502 1509 1486 1486 1473 1474 1474 1470 1469 1471 1472 1475 1477 1477 1476 1476 1477 1477 1478 1477 1476 1475 1473 1469 1466 1462 1458 1455 1452 1450 1446 1444 1442 1440
1505 1512 1516 1516 1512 1507 1503 1502 1500 1497 1494 1492 1485 1480 1476 1473 1470 1469 1467 1466 1469 1469 1469 1471 1472 1473 1474 1474 1473 1472 1471 1469 1467 1463 1460 1457 1453 1450 1447 1443 1441 1437 1436 1433
1507 1512 1515 1495 1501 1502 1499 1496 1487 1480 1479 1480 1486 1477 1476 1474 1472 1471 1469 1468 1469 1470 1471 1471 1472 1472 1472 1471 1470 1468 1466 1464 1461 1457 1454 1452 1448 1445 1442 1439 1435 1432 1430 1427
1504 1506 1511 1498 1500 1494 1471 1469 1468 1472 1472 1475 1478 1478 1477 1475 1474 1473 1472 1472 1472 1473 1473 1473 1472 1471 1469 1468 1466 1462 1460 1457 1453 1450 1447 1445 1442 1439 1437 1434 1430 1427 1424 1421
1492 1500 1502 1496 1491 1477 1472 1466 1469 1473 1473 1476 1476 1478 1477 1474 1473 1474 1474 1474 1474 1473 1472 1470 1469 1466 1464 1462 1459 1455 1452 1449 1445 1442 1440 1438 1436 1432 1430 1428 1425 1421 1418 1414
1495 1495 1494 1497 1489 1482 1466 1466 1468 1470 1482 1474 1476 1476 1474 1475 1483 1477 1475 1474 1473 1472 1470 1466 1464 1461 1458 1456 1452 1448 1445 1443 1439 1436 1432 1430 1428 1424 1421 1420 1418 1415 1412 1408
1495 1498 1488 1485 1478 1471 1466 1466 1469 1486 1475 1474 1474 1473 1473 1475 1475 1475 1473 1471 1469 1467 1464 1461 1458 1454 1451 1448 1445 1443 1439 1434 1431 1428 1424 1420 1417 1415 1414 1411 1409 1408 1406 1403
1482 1490 1489 1485 1479 1470 1466 1469 1474 1472 1469 1471 1471 1472 1472 1472 1471 1471 1470 1469 1467 1464 1461 1458 1454 1452 1448 1443 1440 1436 1432 1426 1421 1417 1414 1409 1407 1405 1404 1403 1401 1400 1399 1397
1473 1471 1474 1475 1469 1467 1469 1469 1470 1470 1470 1471 1470 1470 1469 1470 1472 1471 1471 1469 1466 1464 1460 1457 1453 1449 1446 1441 1438 1435 1428 1421 1416 1412 1407 1402 1398 1396 1394 1393 1394 1393 1392 1391
1466 1464 1467 1469 1465 1466 1468 1470 1471 1469 1469 1470 1469 1469 1470 1471 1471 1471 1471 1469 1467 1463 1459 1455 1451 1447 1443 1439 1436 1432 1425 1418 1413 1407 1398 1392 1387 1381 1384 1385 1386 1385 1384 1385
1459 1461 1463 1465 1466 1466 1469 1468 1469 1469 1470 1469 1470 1470 1471 1470 1471 1470 1469 1466 1463 1460 1456 1453 1450 1445 1441 1437 1433 1429 1422 1416 1409 1402 1395 1387 1381 1375 1374 1377 1377 1378 1378 1376
1456 1454 1458 1455 1455 1460 1467 1468 1469 1468 1469 1470 1470 1469 1468 1469 1469 1468 1466 1464 1460 1457 1453 1451 1449 1444 1438 1434 1430 1425 1419 1413 1406 1399 1392 1385 1378 1371 1368 1370 1372 1373 1373 1372
Wind_Speed
2 2 7 11 8 4 4 5 5 7 6 3 3 5 9 12 18 20 27 31 32 30 26 21 17 14 13 11 9 10 8 7 5 3 6 11 17 20 22 23 23 24 26 28
2 7 13 4 6 7 8 8 10 7 5 1 5 10 8 7 8 31 31 27 31 29 27 23 19 15 11 10 8 8 7 9 10 12 17 22 24 25 25 25 25 26 27 28
6 8 2 4 7 8 10 8 5 6 4 2 0 6 3 1 4 17 20 27 32 34 30 25 20 15 11 8 6 5 6 9 14 19 21 21 21 23 26 28 31 33 34 34
6 12 12 11 8 8 8 6 5 3 2 3 3 4 7 2 3 6 17 28 33 34 28 25 20 16 10 6 4 4 7 12 16 20 19 20 23 26 29 34 37 39 38 36
7 3 2 3 5 6 8 6 4 3 2 2 3 3 7 3 4 6 11 26 32 30 26 24 19 14 10 6 2 4 9 14 17 19 20 21 25 29 31 36 38 39 38 35
7 6 3 6 5 3 0 2 5 4 2 1 4 2 5 4 2 2 10 23 32 28 25 22 19 15 11 7 3 6 12 16 17 17 20 24 26 32 33 37 36 35 30 24
4 5 4 6 1 1 3 5 3 4 2 5 2 2 8 6 5 8 19 24 32 29 25 25 21 17 13 9 6 11 15 15 15 16 20 24 28 30 34 30 30 28 25 20
1 6 5 2 2 7 3 5 5 5 4 5 5 5 5 4 14 10 21 25 31 29 29 27 22 18 14 10 9 12 14 11 15 19 23 28 30 31 27 26 22 21 19 19
3 4 3 5 3 3 3 2 4 3 3 2 4 5 5 2 4 3 15 25 29 29 28 26 24 18 13 10 10 13 14 16 18 22 26 29 29 30 24 19 16 15 16 16
5 3 3 4 1 7 3 2 2 3 2 5 4 5 6 5 7 7 10 21 25 26 26 20 17 14 13 12 12 15 17 16 21 24 27 28 31 29 23 18 15 14 17 15
1 3 3 3 3 3 3 2 5 3 4 4 5 5 5 6 9 12 20 24 30 29 25 22 18 16 16 14 16 17 16 20 23 26 28 31 31 25 20 19 18 18 17 19
3 1 2 6 2 0 4 2 5 4 3 4 4 6 10 10 6 17 20 27 32 30 26 21 19 17 21 19 18 19 21 23 25 26 29 29 25 21 20 21 19 20 17 19
3 1 4 5 3 3 4 4 4 5 3 7 4 9 3 4 5 13 21 28 31 31 24 19 17 19 22 21 22 21 21 23 24 27 30 27 24 22 20 19 16 17 20 21
8 3 7 6 2 3 3 4 4 5 3 9 11 27 21 19 6 10 19 24 26 23 15 14 19 26 28 26 22 21 21 23 26 28 28 25 22 20 18 19 18 19 21 24
4 3 2 9 5 5 5 6 7 7 13 8 22 23 25 18 15 21 21 20 21 20 28 37 36 29 25 25 23 20 20 24 25 26 24 22 21 19 18 20 20 21 21 22
3 3 4 7 8 8 9 8 10 14 16 16 22 25 12 12 15 16 13 20 23 33 34 34 22 23 26 24 21 19 24 21 24 25 23 20 20 20 19 20 21 20 20 17
5 5 3 16 5 1 9 11 17 13 12 9 12 10 3 4 8 13 10 11 13 12 13 13 18 21 22 23 24 26 27 23 27 25 23 21 21 21 21 20 20 19 18 14
7 5 3 6 2 12 4 4 6 12 10 3 2 1 3 3 5 7 7 6 7 9 13 17 20 24 26 25 28 30 28 27 27 26 27 24 24 23 22 22 21 20 17 15
5 4 3 3 6 10 9 7 5 6 4 0 4 2 0 6 5 5 4 8 14 17 19 22 22 25 27 29 30 33 31 30 29 28 31 30 29 27 24 24 23 21 20 17
2 1 6 3 4 6 1 3 3 4 5 5 6 3 2 3 2 4 13 17 21 22 23 27 27 28 29 31 32 35 34 33 34 37 37 38 35 33 28 25 23 22 20 18
2 1 12 11 6 6 3 4 4 4 2 6 7 5 5 3 3 15 14 13 14 14 16 17 18 17 18 22 25 24 24 26 30 35 39 39 39 37 31 25 23 22 21 19
7 6 4 3 3 9 5 3 5 0 2 7 6 6 7 8 9 10 10 12 15 16 17 18 19 19 20 20 25 28 30 29 32 34 40 38 39 36 34 28 23 24 21 20
3 6 4 7 4 4 8 6 4 8 10 3 6 5 5 8 10 11 12 14 16 20 22 23 25 28 29 31 30 30 28 32 33 36 35 35 39 39 37 30 27 23 21 21
2 5 3 2 5 6 5 1 3 7 11 11 11 9 8 9 11 9 11 14 16 20 24 26 26 27 29 32 32 30 33 34 35 34 32 34 36 33 37 31 28 25 22 21
5 9 5 2 3 6 2 7 13 15 12 10 10 10 12 10 10 7 10 14 17 17 17 18 21 26 28 29 29 28 30 32 32 34 34 35 34 32 33 36 32 27 21 19
7 5 5 5 11 9 8 12 12 14 12 10 8 8 10 10 10 10 12 14 15 16 20 23 23 24 25 25 26 29 29 31 31 31 32 31 32 30 30 29 25 21 17 16
Wind_Direction
226 130 226 226 204 243 317 286 247 269 276 272 291 297 297 158 136 151 165 170 169 163 156 155 155 157 153 133 116 92 84 64 21 360 340 341 339 329 320 316 314 310 306 304
318 244 236 226 224 227 257 261 276 276 247 189 288 285 261 141 187 181 172 171 169 161 158 156 160 159 154 133 105 87 55 19 0 347 346 341 331 330 331 329 323 320 316 317
186 236 47 208 260 238 245 226 236 241 310 271 93 303 305 142 122 180 181 175 174 170 164 164 163 163 152 135 110 66 25 358 340 339 338 332 331 330 331 330 329 328 326 324
230 255 259 282 242 221 245 217 222 255 6 285 143 273 293 151 114 166 169 175 175 172 169 170 169 161 159 146 113 35 354 330 328 334 337 342 343 342 340 335 330 326 323 320
236 206 163 280 227 170 245 187 207 254 161 2 300 88 263 81 272 210 188 181 179 175 174 172 172 172 167 160 109 347 322 322 332 339 341 339 338 339 334 330 326 325 324 319
243 261 233 211 227 215 8 81 51 42 96 28 265 104 272 240 290 174 196 188 182 176 176 176 175 178 182 190 232 299 311 316 329 333 336 335 334 336 330 329 330 333 336 342
305 239 256 199 183 97 85 74 318 332 353 223 355 3 245 291 260 222 196 188 183 181 181 181 186 193 203 212 245 293 303 317 324 325 329 330 332 332 330 332 334 338 343 355
271 324 358 31 155 182 191 155 179 228 224 251 335 244 258 263 315 291 189 180 183 188 190 190 195 200 206 222 269 296 301 306 321 324 325 329 328 327 324 322 326 327 332 328
220 271 308 46 25 97 212 144 174 134 29 35 243 299 294 330 5 119 168 185 196 197 194 197 201 204 220 244 281 295 309 311 318 319 321 321 320 320 315 311 310 316 319 322
229 259 27 333 3 18 105 116 70 8 278 260 271 263 247 282 243 220 207 206 208 205 203 208 218 229 241 263 281 301 299 303 313 314 314 315 316 314 307 294 291 298 303 304
98 140 279 39 12 268 351 38 43 103 139 210 284 257 227 249 223 209 219 216 212 209 208 210 224 238 249 266 273 283 291 304 306 310 312 315 314 307 297 283 272 279 288 292
56 355 217 215 247 18 334 181 168 133 246 231 209 254 255 249 258 223 229 222 222 215 214 222 228 238 266 261 270 284 294 296 303 308 311 313 309 304 295 291 278 276 276 291
157 76 337 343 46 20 210 204 155 109 78 217 263 274 248 299 304 271 242 237 227 217 216 221 239 260 250 265 268 276 286 297 302 303 304 302 302 302 295 290 281 275 279 284
139 137 177 207 260 113 185 207 201 154 153 280 258 281 288 292 253 252 264 240 223 211 216 240 260 250 270 255 261 277 288 298 297 298 297 296 301 301 296 290 280 273 273 277
75 170 114 283 238 195 209 203 223 219 248 250 279 279 284 299 306 295 270 232 213 223 240 247 254 269 247 251 266 275 296 298 294 294 294 300 300 298 299 298 295 276 272 276
183 210 155 244 258 233 240 221 232 247 259 264 268 274 298 304 307 300 243 214 225 243 246 260 252 236 247 260 269 288 298 298 300 296 295 300 301 298 298 303 302 293 281 283
152 151 124 284 210 26 269 201 219 234 227 232 261 276 345 357 357 2 325 295 282 275 271 247 247 257 270 279 285 288 299 296 298 292 290 295 300 297 295 300 299 296 288 284
161 141 161 268 103 264 285 233 232 232 240 215 342 49 62 45 17 31 32 18 354 335 316 305 292 286 282 281 288 298 293 290 291 287 286 287 293 291 288 293 292 291 293 283
156 142 222 240 255 289 275 264 180 187 230 166 181 234 215 22 345 314 329 346 328 322 315 312 303 296 291 290 290 288 284 287 283 278 285 284 282 284 283 284 289 286 288 282
42 55 211 136 233 258 156 130 78 53 273 183 164 215 50 41 47 266 331 325 321 319 314 315 309 301 295 297 293 286 284 289 288 292 294 290 278 275 275 278 284 285 288 294
164 233 235 242 254 270 230 146 103 112 268 177 205 207 207 196 277 334 343 348 344 344 339 325 317 314 310 299 294 295 294 296 304 305 296 294 275 265 271 267 278 279 282 288
191 183 202 203 243 269 151 122 171 187 76 290 288 322 337 7 13 14 9 360 350 345 338 333 333 332 328 322 327 329 323 317 305 303 297 290 274 259 263 259 273 271 273 278
211 202 187 200 214 121 68 82 346 311 296 44 73 45 72 65 35 13 5 355 351 340 342 340 339 333 331 339 344 340 332 327 321 311 318 311 278 264 257 250 258 259 267 272
279 163 222 138 179 142 153 81 131 117 124 115 104 89 70 60 42 24 354 353 0 354 348 343 341 339 338 335 337 335 328 330 330 329 322 303 302 290 247 245 253 255 262 265
173 153 170 251 278 132 76 134 142 128 122 103 84 71 66 57 39 15 358 354 348 350 344 342 339 337 337 339 339 336 331 329 325 330 328 331 312 284 249 245 251 252 258 258
201 170 178 219 177 114 115 133 147 132 106 93 83 59 35 29 20 3 353 355 358 347 345 342 342 342 342 342 336 336 339 341 337 326 330 334 330 297 260 244 244 248 245 258